Time,TemperatureF,DewpointF,PressureIn,WindDirection,WindDirectionDegrees,WindSpeedMPH,WindSpeedGustMPH,Humidity,HourlyPrecipIn,Conditions,Clouds,dailyrainin,SoftwareType,DateUTC
2013-05-16 00:01:00,69.8,60.0,29.88,NE,41,0.0,0.0,71,0.00,,---,0.00,VWS V14.01,2013-05-16 04:01:00,
2013-05-16 00:06:00,69.4,60.0,29.88,NE,41,0.0,0.0,72,0.00,,---,0.00,VWS V14.01,2013-05-16 04:06:00,
2013-05-16 00:11:00,69.3,60.2,29.88,NE,41,0.0,0.0,73,0.00,,---,0.00,VWS V14.01,2013-05-16 04:11:00,
2013-05-16 00:16:00,69.1,60.5,29.88,NE,41,0.0,0.0,74,0.00,,---,0.00,VWS V14.01,2013-05-16 04:16:00,
2013-05-16 00:21:00,68.9,60.3,29.85,NE,41,0.0,0.0,74,0.00,,---,0.00,VWS V14.01,2013-05-16 04:21:00,
2013-05-16 00:26:00,68.7,60.5,29.85,NE,41,0.0,0.0,75,0.00,,---,0.00,VWS V14.01,2013-05-16 04:26:00,
2013-05-16 00:31:00,68.4,60.5,29.85,NE,41,0.0,0.0,76,0.00,,---,0.00,VWS V14.01,2013-05-16 04:31:00,
2013-05-16 00:36:00,68.2,60.7,29.85,NE,41,0.0,0.0,77,0.00,,---,0.00,VWS V14.01,2013-05-16 04:36:00,
2013-05-16 00:41:00,67.8,60.7,29.85,NE,41,0.0,0.0,78,0.00,,---,0.00,VWS V14.01,2013-05-16 04:41:00,
2013-05-16 00:46:00,67.6,60.9,29.85,NE,41,0.0,0.0,79,0.00,,---,0.00,VWS V14.01,2013-05-16 04:46:00,
2013-05-16 00:51:00,67.5,60.7,29.85,NE,41,0.0,0.0,79,0.00,,---,0.00,VWS V14.01,2013-05-16 04:51:00,
2013-05-16 00:56:00,67.3,60.9,29.85,NE,41,0.0,0.0,80,0.00,,---,0.00,VWS V14.01,2013-05-16 04:56:00,
2013-05-16 01:01:00,67.1,60.7,29.85,NE,41,0.0,0.0,80,0.00,,---,0.00,VWS V14.01,2013-05-16 05:01:00,
2013-05-16 01:06:00,66.9,60.6,29.88,NE,41,0.0,0.0,80,0.00,,---,0.00,VWS V14.01,2013-05-16 05:06:00,
2013-05-16 01:11:00,66.7,60.7,29.88,NE,41,0.0,0.0,81,0.00,,---,0.00,VWS V14.01,2013-05-16 05:11:00,
2013-05-16 01:16:00,66.6,60.9,29.88,NNE,28,0.0,0.0,82,0.00,,---,0.00,VWS V14.01,2013-05-16 05:16:00,
2013-05-16 01:21:00,66.6,60.9,29.85,NNE,28,0.0,0.0,82,0.00,,---,0.00,VWS V14.01,2013-05-16 05:21:00,
2013-05-16 01:26:00,66.4,60.7,29.85,NNE,28,0.0,0.0,82,0.00,,---,0.00,VWS V14.01,2013-05-16 05:26:00,
2013-05-16 01:31:00,66.2,60.5,29.85,NNE,28,0.0,0.0,82,0.00,,---,0.00,VWS V14.01,2013-05-16 05:31:00,
2013-05-16 01:36:00,66.0,60.7,29.85,NNE,28,0.0,0.0,83,0.00,,---,0.00,VWS V14.01,2013-05-16 05:36:00,
2013-05-16 01:41:00,65.8,60.9,29.85,NNE,28,0.0,0.0,84,0.00,,---,0.00,VWS V14.01,2013-05-16 05:41:00,
2013-05-16 01:46:00,65.7,61.0,29.85,NNE,28,0.0,0.0,85,0.00,,---,0.00,VWS V14.01,2013-05-16 05:46:00,
2013-05-16 01:51:00,65.5,60.9,29.85,NNE,28,0.0,0.0,85,0.00,,---,0.00,VWS V14.01,2013-05-16 05:51:00,
2013-05-16 01:56:00,65.3,60.7,29.85,NNE,28,0.0,0.0,85,0.00,,---,0.00,VWS V14.01,2013-05-16 05:56:00,
2013-05-16 02:01:00,65.1,60.8,29.85,NNE,28,0.0,0.0,86,0.00,,---,0.00,VWS V14.01,2013-05-16 06:01:00,
2013-05-16 02:06:00,64.9,60.7,29.85,NNE,28,0.0,0.0,86,0.00,,---,0.00,VWS V14.01,2013-05-16 06:06:00,
2013-05-16 02:11:00,64.8,60.8,29.85,NNE,28,0.0,0.0,87,0.00,,---,0.00,VWS V14.01,2013-05-16 06:11:00,
2013-05-16 02:16:00,64.8,60.8,29.85,NNE,28,0.0,0.0,87,0.00,,---,0.00,VWS V14.01,2013-05-16 06:16:00,
2013-05-16 02:21:00,64.6,60.6,29.85,NNE,28,0.0,0.0,87,0.00,,---,0.00,VWS V14.01,2013-05-16 06:21:00,
2013-05-16 02:26:00,64.4,60.8,29.85,NNE,28,0.0,0.0,88,0.00,,---,0.00,VWS V14.01,2013-05-16 06:26:00,
2013-05-16 02:31:00,64.2,60.6,29.85,NNE,28,0.0,0.0,88,0.00,,---,0.00,VWS V14.01,2013-05-16 06:31:00,
2013-05-16 02:36:00,64.2,60.9,29.85,NNE,28,0.0,0.0,89,0.00,,---,0.00,VWS V14.01,2013-05-16 06:36:00,
2013-05-16 02:41:00,64.2,60.9,29.85,NNE,28,0.0,0.0,89,0.00,,---,0.00,VWS V14.01,2013-05-16 06:41:00,
2013-05-16 02:46:00,64.0,60.7,29.85,NNE,28,0.0,0.0,89,0.00,,---,0.00,VWS V14.01,2013-05-16 06:46:00,
2013-05-16 02:51:00,63.9,60.6,29.85,NNE,28,0.0,0.0,89,0.00,,---,0.00,VWS V14.01,2013-05-16 06:51:00,
2013-05-16 02:56:00,63.7,60.4,29.85,NNE,28,0.0,0.0,89,0.00,,---,0.00,VWS V14.01,2013-05-16 06:56:00,
2013-05-16 03:01:00,63.5,60.5,29.85,NNE,28,0.0,0.0,90,0.00,,---,0.00,VWS V14.01,2013-05-16 07:01:00,
2013-05-16 03:06:00,63.3,60.3,29.82,NNE,28,0.0,0.0,90,0.00,,---,0.00,VWS V14.01,2013-05-16 07:06:00,
2013-05-16 03:11:00,63.1,60.2,29.82,NNE,28,0.0,0.0,90,0.00,,---,0.00,VWS V14.01,2013-05-16 07:11:00,
2013-05-16 03:16:00,63.0,60.3,29.82,NNE,28,0.0,0.0,91,0.00,,---,0.00,VWS V14.01,2013-05-16 07:16:00,
2013-05-16 03:21:00,62.8,60.1,29.85,NNE,28,0.0,0.0,91,0.00,,---,0.00,VWS V14.01,2013-05-16 07:21:00,
2013-05-16 03:26:00,62.6,59.9,29.85,NNE,28,0.0,0.0,91,0.00,,---,0.00,VWS V14.01,2013-05-16 07:26:00,
2013-05-16 03:31:00,62.4,60.1,29.85,NNE,28,0.0,0.0,92,0.00,,---,0.00,VWS V14.01,2013-05-16 07:31:00,
2013-05-16 03:36:00,62.4,60.1,29.85,NNE,28,0.0,0.0,92,0.00,,---,0.00,VWS V14.01,2013-05-16 07:36:00,
2013-05-16 03:41:00,62.2,59.9,29.85,NNE,28,0.0,0.0,92,0.00,,---,0.00,VWS V14.01,2013-05-16 07:41:00,
2013-05-16 03:45:00,62.2,60.2,29.85,NNE,28,0.0,0.0,93,0.00,,---,0.00,VWS V14.01,2013-05-16 07:45:00,
2013-05-16 03:50:00,62.1,60.0,29.85,NNE,28,0.0,0.0,93,0.00,,---,0.00,VWS V14.01,2013-05-16 07:50:00,
2013-05-16 03:55:00,61.9,59.8,29.85,NNE,28,0.0,0.0,93,0.00,,---,0.00,VWS V14.01,2013-05-16 07:55:00,
2013-05-16 04:00:00,61.9,59.8,29.85,NNE,28,0.0,0.0,93,0.00,,---,0.00,VWS V14.01,2013-05-16 08:00:00,
2013-05-16 04:05:00,61.7,59.7,29.85,NNE,28,0.0,0.0,93,0.00,,---,0.00,VWS V14.01,2013-05-16 08:05:00,
2013-05-16 04:10:00,61.5,59.5,29.85,NNE,28,0.0,0.0,93,0.00,,---,0.00,VWS V14.01,2013-05-16 08:10:00,
2013-05-16 04:15:00,61.3,59.6,29.85,NNE,28,0.0,0.0,94,0.00,,---,0.00,VWS V14.01,2013-05-16 08:15:00,
2013-05-16 04:20:00,61.3,59.6,29.85,NNE,28,0.0,0.0,94,0.00,,---,0.00,VWS V14.01,2013-05-16 08:20:00,
2013-05-16 04:25:00,61.2,59.4,29.85,NNE,28,0.0,0.0,94,0.00,,---,0.00,VWS V14.01,2013-05-16 08:25:00,
2013-05-16 04:30:00,61.0,59.2,29.85,NNE,28,0.0,0.0,94,0.00,,---,0.00,VWS V14.01,2013-05-16 08:30:00,
2013-05-16 04:35:00,61.0,59.2,29.85,NNE,28,0.0,0.0,94,0.00,,---,0.00,VWS V14.01,2013-05-16 08:35:00,
2013-05-16 04:40:00,60.8,59.1,29.85,NNE,28,0.0,0.0,94,0.00,,---,0.00,VWS V14.01,2013-05-16 08:40:00,
2013-05-16 04:45:00,60.6,59.2,29.85,NNE,28,0.0,0.0,95,0.00,,---,0.00,VWS V14.01,2013-05-16 08:45:00,
2013-05-16 04:50:00,60.6,59.2,29.82,NNE,28,0.0,0.0,95,0.00,,---,0.00,VWS V14.01,2013-05-16 08:50:00,
2013-05-16 04:55:00,60.6,59.2,29.82,NNE,28,0.0,0.0,95,0.00,,---,0.00,VWS V14.01,2013-05-16 08:55:00,
2013-05-16 05:00:00,60.4,59.0,29.82,NNE,28,0.0,0.0,95,0.00,,---,0.00,VWS V14.01,2013-05-16 09:00:00,
2013-05-16 05:05:00,60.3,58.8,29.85,NNE,28,0.0,0.0,95,0.00,,---,0.00,VWS V14.01,2013-05-16 09:05:00,
2013-05-16 05:10:00,60.3,58.8,29.85,NNE,28,0.0,0.0,95,0.00,,---,0.00,VWS V14.01,2013-05-16 09:10:00,
2013-05-16 05:15:00,60.1,58.7,29.85,NNE,28,0.0,0.0,95,0.00,,---,0.00,VWS V14.01,2013-05-16 09:15:00,
2013-05-16 05:20:00,60.1,58.7,29.85,NNE,28,0.0,0.0,95,0.00,,---,0.00,VWS V14.01,2013-05-16 09:20:00,
2013-05-16 05:25:00,59.9,58.5,29.85,NNE,28,0.0,0.0,95,0.00,,---,0.00,VWS V14.01,2013-05-16 09:25:00,
2013-05-16 05:30:00,59.7,58.3,29.85,NNE,28,0.0,0.0,95,0.00,,---,0.00,VWS V14.01,2013-05-16 09:30:00,
2013-05-16 05:35:00,59.7,58.3,29.85,NNE,28,0.0,0.0,95,0.00,,---,0.00,VWS V14.01,2013-05-16 09:35:00,
2013-05-16 05:40:00,59.5,58.1,29.85,NNE,28,0.0,0.0,95,0.00,,---,0.00,VWS V14.01,2013-05-16 09:40:00,
2013-05-16 05:45:00,59.5,58.1,29.85,NNE,28,0.0,0.0,95,0.00,,---,0.00,VWS V14.01,2013-05-16 09:45:00,
2013-05-16 05:50:00,59.4,58.2,29.85,NNE,28,0.0,0.0,96,0.00,,---,0.00,VWS V14.01,2013-05-16 09:50:00,
2013-05-16 05:55:00,59.4,58.2,29.85,NNE,28,0.0,0.0,96,0.00,,---,0.00,VWS V14.01,2013-05-16 09:55:00,
2013-05-16 06:00:00,59.2,58.0,29.85,NNE,28,0.0,0.0,96,0.00,,---,0.00,VWS V14.01,2013-05-16 10:00:00,
2013-05-16 06:05:00,59.0,57.9,29.85,NNE,28,0.0,0.0,96,0.00,,---,0.00,VWS V14.01,2013-05-16 10:05:00,
2013-05-16 06:10:00,59.0,57.9,29.85,NNE,28,0.0,0.0,96,0.00,,---,0.00,VWS V14.01,2013-05-16 10:10:00,
2013-05-16 06:15:00,58.8,58.0,29.85,NNE,28,0.0,0.0,97,0.00,,---,0.00,VWS V14.01,2013-05-16 10:15:00,
2013-05-16 06:20:00,58.8,58.0,29.85,NNE,28,0.0,0.0,97,0.00,,---,0.00,VWS V14.01,2013-05-16 10:20:00,
2013-05-16 06:25:00,58.8,58.0,29.85,NNE,28,0.0,0.0,97,0.00,,---,0.00,VWS V14.01,2013-05-16 10:25:00,
2013-05-16 06:30:00,58.6,57.8,29.85,NNE,28,0.0,0.0,97,0.00,,---,0.00,VWS V14.01,2013-05-16 10:30:00,
2013-05-16 06:35:00,58.6,57.8,29.85,NNE,28,0.0,0.0,97,0.00,,---,0.00,VWS V14.01,2013-05-16 10:35:00,
2013-05-16 06:40:00,58.5,57.6,29.85,NNE,28,0.0,0.0,97,0.00,,---,0.00,VWS V14.01,2013-05-16 10:40:00,
2013-05-16 06:45:00,58.5,57.6,29.85,NNE,28,0.0,0.0,97,0.00,,---,0.00,VWS V14.01,2013-05-16 10:45:00,
2013-05-16 06:50:00,58.5,57.6,29.85,NNE,28,0.0,0.0,97,0.00,,---,0.00,VWS V14.01,2013-05-16 10:50:00,
2013-05-16 06:55:00,58.5,57.9,29.85,NNE,28,0.0,0.0,98,0.00,,---,0.00,VWS V14.01,2013-05-16 10:55:00,
2013-05-16 07:00:00,58.6,58.1,29.85,NNE,28,0.0,0.0,98,0.00,,---,0.00,VWS V14.01,2013-05-16 11:00:00,
2013-05-16 07:05:00,58.6,58.1,29.88,NNE,28,0.0,0.0,98,0.00,,---,0.00,VWS V14.01,2013-05-16 11:05:00,
2013-05-16 07:10:00,58.6,58.1,29.88,NNE,28,0.0,0.0,98,0.00,,---,0.00,VWS V14.01,2013-05-16 11:10:00,
2013-05-16 07:15:00,58.6,58.1,29.88,NNE,28,0.0,0.0,98,0.00,,---,0.00,VWS V14.01,2013-05-16 11:15:00,
2013-05-16 07:20:00,58.8,58.3,29.88,NNE,28,0.0,0.0,98,0.00,,---,0.00,VWS V14.01,2013-05-16 11:20:00,
2013-05-16 07:25:00,59.0,58.4,29.88,NNE,28,0.0,0.0,98,0.00,,---,0.00,VWS V14.01,2013-05-16 11:25:00,
2013-05-16 07:30:00,59.2,58.6,29.88,NNE,28,0.0,0.0,98,0.00,,---,0.00,VWS V14.01,2013-05-16 11:30:00,
2013-05-16 07:35:00,59.4,58.8,29.85,NNE,28,0.0,0.0,98,0.00,,---,0.00,VWS V14.01,2013-05-16 11:35:00,
2013-05-16 07:40:00,59.5,59.0,29.85,NNE,28,0.0,0.0,98,0.00,,---,0.00,VWS V14.01,2013-05-16 11:40:00,
2013-05-16 07:45:00,59.7,59.2,29.85,NNE,28,0.0,0.0,98,0.00,,---,0.00,VWS V14.01,2013-05-16 11:45:00,
2013-05-16 07:50:00,60.3,59.7,29.88,NNE,28,0.0,0.0,98,0.00,,---,0.00,VWS V14.01,2013-05-16 11:50:00,
2013-05-16 07:55:00,60.6,60.1,29.88,NNE,28,0.0,0.0,98,0.00,,---,0.00,VWS V14.01,2013-05-16 11:55:00,
2013-05-16 08:00:00,61.2,60.6,29.88,NNE,28,0.0,0.0,98,0.00,,---,0.00,VWS V14.01,2013-05-16 12:00:00,
2013-05-16 08:05:00,61.5,61.0,29.88,NNE,28,0.0,0.0,98,0.00,,---,0.00,VWS V14.01,2013-05-16 12:05:00,
2013-05-16 08:10:00,61.9,61.0,29.88,NNE,28,0.0,0.0,97,0.00,,---,0.00,VWS V14.01,2013-05-16 12:10:00,
2013-05-16 08:15:00,62.4,61.6,29.88,NNE,28,0.0,0.0,97,0.00,,---,0.00,VWS V14.01,2013-05-16 12:15:00,
2013-05-16 08:20:00,62.8,61.6,29.88,NNE,28,0.0,0.0,96,0.00,,---,0.00,VWS V14.01,2013-05-16 12:20:00,
2013-05-16 08:25:00,63.3,62.2,29.88,NNE,28,0.0,0.0,96,0.00,,---,0.00,VWS V14.01,2013-05-16 12:25:00,
2013-05-16 08:30:00,63.9,62.4,29.88,NNE,28,0.0,0.0,95,0.00,,---,0.00,VWS V14.01,2013-05-16 12:30:00,
2013-05-16 08:35:00,64.0,62.6,29.88,NNE,28,0.0,0.0,95,0.00,,---,0.00,VWS V14.01,2013-05-16 12:35:00,
2013-05-16 08:40:00,64.2,62.5,29.88,NNE,28,0.0,0.0,94,0.00,,---,0.00,VWS V14.01,2013-05-16 12:40:00,
2013-05-16 08:45:00,64.6,62.2,29.88,NNE,28,0.0,0.0,92,0.00,,---,0.00,VWS V14.01,2013-05-16 12:45:00,
2013-05-16 08:50:00,65.1,62.4,29.91,NNE,28,0.0,0.0,91,0.00,,---,0.00,VWS V14.01,2013-05-16 12:50:00,
2013-05-16 08:55:00,65.5,62.5,29.91,NNE,28,0.0,0.0,90,0.00,,---,0.00,VWS V14.01,2013-05-16 12:55:00,
2013-05-16 09:00:00,65.8,62.2,29.91,NNE,28,0.0,0.0,88,0.00,,---,0.00,VWS V14.01,2013-05-16 13:00:00,
2013-05-16 09:05:00,66.2,61.9,29.91,NNE,28,0.0,0.0,86,0.00,,---,0.00,VWS V14.01,2013-05-16 13:05:00,
2013-05-16 09:10:00,66.6,61.6,29.91,NNE,28,0.0,0.0,84,0.00,,---,0.00,VWS V14.01,2013-05-16 13:10:00,
2013-05-16 09:15:00,66.9,61.2,29.91,NNE,28,0.0,0.0,82,0.00,,---,0.00,VWS V14.01,2013-05-16 13:15:00,
2013-05-16 09:20:00,67.1,61.1,29.91,NNE,28,0.0,0.0,81,0.00,,---,0.00,VWS V14.01,2013-05-16 13:20:00,
2013-05-16 09:25:00,67.5,61.1,29.91,NNE,28,0.0,0.0,80,0.00,,---,0.00,VWS V14.01,2013-05-16 13:25:00,
2013-05-16 09:30:00,67.8,61.1,29.91,NNE,28,0.0,0.0,79,0.00,,---,0.00,VWS V14.01,2013-05-16 13:30:00,
2013-05-16 09:35:00,68.2,61.1,29.91,NNE,28,0.0,0.0,78,0.00,,---,0.00,VWS V14.01,2013-05-16 13:35:00,
2013-05-16 09:40:00,68.5,61.0,29.91,NNE,28,0.0,0.0,77,0.00,,---,0.00,VWS V14.01,2013-05-16 13:40:00,
2013-05-16 09:45:00,68.9,61.4,29.91,North,357,0.0,0.0,77,0.00,,---,0.00,VWS V14.01,2013-05-16 13:45:00,
2013-05-16 09:50:00,69.3,60.6,29.91,North,357,0.0,0.0,74,0.00,,---,0.00,VWS V14.01,2013-05-16 13:50:00,
2013-05-16 09:55:00,69.6,61.0,29.91,North,0,0.0,0.0,74,0.00,,---,0.00,VWS V14.01,2013-05-16 13:55:00,
2013-05-16 10:00:00,70.0,60.2,29.91,North,0,0.0,0.0,71,0.00,,---,0.00,VWS V14.01,2013-05-16 14:00:00,
2013-05-16 10:05:00,70.3,59.7,29.91,NNW,342,0.0,0.0,69,0.00,,---,0.00,VWS V14.01,2013-05-16 14:05:00,
2013-05-16 10:10:00,70.5,59.9,29.91,NW,314,0.0,0.0,69,0.00,,---,0.00,VWS V14.01,2013-05-16 14:10:00,
2013-05-16 10:15:00,70.7,60.0,29.91,NW,314,0.0,0.0,69,0.00,,---,0.00,VWS V14.01,2013-05-16 14:15:00,
2013-05-16 10:20:00,71.1,60.4,29.91,NW,314,0.0,0.0,69,0.00,,---,0.00,VWS V14.01,2013-05-16 14:20:00,
2013-05-16 10:25:00,71.2,60.2,29.91,NW,314,0.0,0.0,68,0.00,,---,0.00,VWS V14.01,2013-05-16 14:25:00,
2013-05-16 10:30:00,71.4,60.3,29.91,WNW,298,0.0,0.0,68,0.00,,---,0.00,VWS V14.01,2013-05-16 14:30:00,
2013-05-16 10:35:00,71.6,60.1,29.91,North,349,0.0,0.0,67,0.00,,---,0.00,VWS V14.01,2013-05-16 14:35:00,
2013-05-16 10:40:00,72.0,60.4,29.91,North,10,0.0,0.0,67,0.00,,---,0.00,VWS V14.01,2013-05-16 14:40:00,
2013-05-16 10:45:00,72.3,60.3,29.91,NNW,332,0.0,0.0,66,0.00,,---,0.00,VWS V14.01,2013-05-16 14:45:00,
2013-05-16 10:50:00,72.9,60.8,29.91,WSW,258,0.0,0.0,66,0.00,,---,0.00,VWS V14.01,2013-05-16 14:50:00,
2013-05-16 10:55:00,73.0,59.3,29.91,North,357,0.0,0.0,62,0.00,,---,0.00,VWS V14.01,2013-05-16 14:55:00,
2013-05-16 11:00:00,73.2,59.0,29.91,NW,315,0.0,0.0,61,0.00,,---,0.00,VWS V14.01,2013-05-16 15:00:00,
2013-05-16 11:05:00,73.6,58.8,29.91,NNW,339,0.0,0.0,60,0.00,,---,0.00,VWS V14.01,2013-05-16 15:05:00,
2013-05-16 11:10:00,73.8,58.5,29.91,SSE,158,0.0,0.0,59,0.00,,---,0.00,VWS V14.01,2013-05-16 15:10:00,
2013-05-16 11:15:00,74.1,58.4,29.91,NNW,340,0.0,0.0,58,0.00,,---,0.00,VWS V14.01,2013-05-16 15:15:00,
2013-05-16 11:20:00,74.5,58.3,29.91,WNW,299,0.0,0.0,57,0.00,,---,0.00,VWS V14.01,2013-05-16 15:20:00,
2013-05-16 11:25:00,74.7,58.9,29.91,SSE,165,0.0,0.0,58,0.00,,---,0.00,VWS V14.01,2013-05-16 15:25:00,
2013-05-16 11:30:00,74.8,58.1,29.91,SSW,209,0.0,0.0,56,0.00,,---,0.00,VWS V14.01,2013-05-16 15:30:00,
2013-05-16 11:35:00,75.4,58.1,29.91,NNW,340,0.0,0.0,55,0.00,,---,0.00,VWS V14.01,2013-05-16 15:35:00,
2013-05-16 11:40:00,75.6,57.8,29.91,SW,225,0.0,0.0,54,0.00,,---,0.00,VWS V14.01,2013-05-16 15:40:00,
2013-05-16 11:45:00,75.9,58.1,29.91,SW,225,3.1,3.1,54,0.00,,---,0.00,VWS V14.01,2013-05-16 15:45:00,
2013-05-16 11:50:00,76.3,57.4,29.91,North,353,2.7,2.7,52,0.00,,---,0.00,VWS V14.01,2013-05-16 15:50:00,
2013-05-16 11:55:00,76.5,57.0,29.91,WSW,247,2.7,3.6,51,0.00,,---,0.00,VWS V14.01,2013-05-16 15:55:00,
2013-05-16 12:00:00,76.8,57.9,29.91,NW,308,0.0,0.0,52,0.00,,---,0.00,VWS V14.01,2013-05-16 16:00:00,
2013-05-16 12:05:00,76.8,57.9,29.91,North,6,0.0,0.0,52,0.00,,---,0.00,VWS V14.01,2013-05-16 16:05:00,
2013-05-16 12:10:00,77.0,57.0,29.91,North,0,2.2,3.1,50,0.00,,---,0.00,VWS V14.01,2013-05-16 16:10:00,
2013-05-16 12:15:00,77.2,56.0,29.91,West,268,0.0,0.0,48,0.00,,---,0.00,VWS V14.01,2013-05-16 16:15:00,
2013-05-16 12:20:00,77.2,56.6,29.91,SE,137,0.0,2.2,49,0.00,,---,0.00,VWS V14.01,2013-05-16 16:20:00,
2013-05-16 12:25:00,77.4,56.7,29.91,WNW,284,0.0,0.0,49,0.00,,---,0.00,VWS V14.01,2013-05-16 16:25:00,
2013-05-16 12:30:00,77.5,55.7,29.91,West,281,0.0,0.0,47,0.00,,---,0.00,VWS V14.01,2013-05-16 16:30:00,
2013-05-16 12:35:00,77.9,55.5,29.91,North,0,0.0,0.0,46,0.00,,---,0.00,VWS V14.01,2013-05-16 16:35:00,
2013-05-16 12:40:00,77.9,54.9,29.91,West,267,0.0,0.0,45,0.00,,---,0.00,VWS V14.01,2013-05-16 16:40:00,
2013-05-16 12:45:00,77.7,55.3,29.91,NNE,27,0.0,0.0,46,0.00,,---,0.00,VWS V14.01,2013-05-16 16:45:00,
2013-05-16 12:50:00,77.9,56.1,29.91,WSW,248,0.0,0.0,47,0.00,,---,0.00,VWS V14.01,2013-05-16 16:50:00,
2013-05-16 12:55:00,78.1,55.6,29.91,ENE,63,0.0,3.1,46,0.00,,---,0.00,VWS V14.01,2013-05-16 16:55:00,
2013-05-16 13:00:00,78.1,56.2,29.91,East,91,0.0,0.0,47,0.00,,---,0.00,VWS V14.01,2013-05-16 17:00:00,
2013-05-16 13:05:00,78.1,59.6,29.91,North,0,0.0,0.0,53,0.00,,---,0.00,VWS V14.01,2013-05-16 17:05:00,
2013-05-16 13:10:00,78.1,56.2,29.91,WNW,285,2.7,2.7,47,0.00,,---,0.00,VWS V14.01,2013-05-16 17:10:00,
2013-05-16 13:15:00,77.9,55.5,29.91,SSW,197,0.0,0.0,46,0.00,,---,0.00,VWS V14.01,2013-05-16 17:15:00,
2013-05-16 13:20:00,77.7,55.9,29.91,NW,314,0.0,0.0,47,0.00,,---,0.00,VWS V14.01,2013-05-16 17:20:00,
2013-05-16 13:25:00,77.7,55.9,29.91,NNE,25,0.0,0.0,47,0.00,,---,0.00,VWS V14.01,2013-05-16 17:25:00,
2013-05-16 13:30:00,77.9,56.1,29.91,North,353,0.0,0.0,47,0.00,,---,0.00,VWS V14.01,2013-05-16 17:30:00,
2013-05-16 13:35:00,77.9,56.1,29.91,North,353,0.0,0.0,47,0.00,,---,0.00,VWS V14.01,2013-05-16 17:35:00,
2013-05-16 13:40:00,78.3,56.4,29.91,NNW,343,3.6,3.6,47,0.00,,---,0.00,VWS V14.01,2013-05-16 17:40:00,
2013-05-16 13:45:00,78.6,56.1,29.91,West,261,2.2,2.2,46,0.00,,---,0.00,VWS V14.01,2013-05-16 17:45:00,
2013-05-16 13:50:00,78.8,55.7,29.91,North,6,3.6,3.6,45,0.00,,---,0.00,VWS V14.01,2013-05-16 17:50:00,
2013-05-16 13:55:00,78.6,55.5,29.91,SE,144,0.0,0.0,45,0.00,,---,0.00,VWS V14.01,2013-05-16 17:55:00,
2013-05-16 14:00:00,78.6,55.5,29.91,South,182,0.0,0.0,45,0.00,,---,0.00,VWS V14.01,2013-05-16 18:00:00,
2013-05-16 14:05:00,78.6,55.5,29.88,WSW,252,2.7,2.7,45,0.00,,---,0.00,VWS V14.01,2013-05-16 18:05:00,
2013-05-16 14:10:00,78.6,56.1,29.88,SSE,166,0.0,0.0,46,0.00,,---,0.00,VWS V14.01,2013-05-16 18:10:00,
2013-05-16 14:15:00,78.6,56.1,29.88,South,176,0.0,0.0,46,0.00,,---,0.00,VWS V14.01,2013-05-16 18:15:00,
2013-05-16 14:20:00,78.8,56.3,29.88,West,265,0.0,0.0,46,0.00,,---,0.00,VWS V14.01,2013-05-16 18:20:00,
2013-05-16 14:25:00,78.8,55.7,29.88,WNW,294,0.0,0.0,45,0.00,,---,0.00,VWS V14.01,2013-05-16 18:25:00,
2013-05-16 14:30:00,78.6,56.1,29.88,SW,226,0.0,4.0,46,0.00,,---,0.00,VWS V14.01,2013-05-16 18:30:00,
2013-05-16 14:35:00,78.8,56.3,29.88,SW,236,0.0,0.0,46,0.00,,---,0.00,VWS V14.01,2013-05-16 18:35:00,
2013-05-16 14:40:00,79.0,56.5,29.88,SSW,193,0.0,0.0,46,0.00,,---,0.00,VWS V14.01,2013-05-16 18:40:00,
2013-05-16 14:45:00,79.3,56.8,29.88,NW,312,3.1,3.6,46,0.00,,---,0.00,VWS V14.01,2013-05-16 18:45:00,
2013-05-16 14:50:00,79.5,56.3,29.88,North,357,0.0,0.0,45,0.00,,---,0.00,VWS V14.01,2013-05-16 18:50:00,
2013-05-16 14:55:00,79.3,56.2,29.88,NW,318,3.1,3.1,45,0.00,,---,0.00,VWS V14.01,2013-05-16 18:55:00,
2013-05-16 15:00:00,79.2,56.6,29.88,NNW,343,4.0,4.0,46,0.00,,---,0.00,VWS V14.01,2013-05-16 19:00:00,
2013-05-16 15:05:00,78.8,56.3,29.88,SW,230,0.0,3.6,46,0.00,,---,0.00,VWS V14.01,2013-05-16 19:05:00,
2013-05-16 15:10:00,78.8,56.3,29.88,SE,125,0.0,0.0,46,0.00,,---,0.00,VWS V14.01,2013-05-16 19:10:00,
2013-05-16 15:15:00,78.6,56.7,29.88,ENE,70,0.0,0.0,47,0.00,,---,0.00,VWS V14.01,2013-05-16 19:15:00,
2013-05-16 15:20:00,78.6,58.4,29.88,South,176,0.0,0.0,50,0.00,,---,0.00,VWS V14.01,2013-05-16 19:20:00,
2013-05-16 15:25:00,78.4,57.7,29.88,SW,233,0.0,0.0,49,0.00,,---,0.00,VWS V14.01,2013-05-16 19:25:00,
2013-05-16 15:30:00,78.3,57.5,29.88,West,279,2.7,4.9,49,0.00,,---,0.00,VWS V14.01,2013-05-16 19:30:00,
2013-05-16 15:35:00,78.3,57.0,29.88,SSE,150,0.0,2.2,48,0.00,,---,0.00,VWS V14.01,2013-05-16 19:35:00,
2013-05-16 15:40:00,78.1,57.4,29.88,North,357,0.0,0.0,49,0.00,,---,0.00,VWS V14.01,2013-05-16 19:40:00,
2013-05-16 15:45:00,78.1,57.4,29.88,NNE,22,0.0,0.0,49,0.00,,---,0.00,VWS V14.01,2013-05-16 19:45:00,
2013-05-16 15:50:00,77.9,57.2,29.88,South,184,0.0,0.0,49,0.00,,---,0.00,VWS V14.01,2013-05-16 19:50:00,
2013-05-16 15:55:00,77.7,57.1,29.88,SW,221,0.0,0.0,49,0.00,,---,0.00,VWS V14.01,2013-05-16 19:55:00,
2013-05-16 16:00:00,77.7,59.8,29.88,South,178,0.0,0.0,54,0.00,,---,0.00,VWS V14.01,2013-05-16 20:00:00,
2013-05-16 16:05:00,77.7,57.6,29.88,SW,223,0.0,0.0,50,0.00,,---,0.00,VWS V14.01,2013-05-16 20:05:00,
2013-05-16 16:10:00,77.7,57.6,29.88,SSW,201,2.7,2.7,50,0.00,,---,0.00,VWS V14.01,2013-05-16 20:10:00,
2013-05-16 16:15:00,77.5,56.9,29.88,North,0,0.0,0.0,49,0.00,,---,0.00,VWS V14.01,2013-05-16 20:15:00,
2013-05-16 16:20:00,77.4,56.7,29.88,SSW,209,0.0,0.0,49,0.00,,---,0.00,VWS V14.01,2013-05-16 20:20:00,
2013-05-16 16:25:00,77.4,57.3,29.88,WSW,250,0.0,0.0,50,0.00,,---,0.00,VWS V14.01,2013-05-16 20:25:00,
2013-05-16 16:30:00,77.2,57.1,29.88,NNE,21,0.0,0.0,50,0.00,,---,0.00,VWS V14.01,2013-05-16 20:30:00,
2013-05-16 16:35:00,77.4,58.9,29.88,NNW,338,0.0,0.0,53,0.00,,---,0.00,VWS V14.01,2013-05-16 20:35:00,
2013-05-16 16:40:00,77.4,57.8,29.88,NE,34,0.0,0.0,51,0.00,,---,0.00,VWS V14.01,2013-05-16 20:40:00,
2013-05-16 16:45:00,77.4,58.4,29.88,North,357,0.0,0.0,52,0.00,,---,0.00,VWS V14.01,2013-05-16 20:45:00,
2013-05-16 16:50:00,77.4,58.9,29.88,WNW,285,6.3,6.3,53,0.00,,---,0.00,VWS V14.01,2013-05-16 20:50:00,
2013-05-16 16:55:00,77.5,57.5,29.88,NNE,19,0.0,0.0,50,0.00,,---,0.00,VWS V14.01,2013-05-16 20:55:00,
2013-05-16 17:00:00,77.7,57.1,29.88,North,357,0.0,3.6,49,0.00,,---,0.00,VWS V14.01,2013-05-16 21:00:00,
2013-05-16 17:05:00,77.7,57.6,29.88,North,353,0.0,0.0,50,0.00,,---,0.00,VWS V14.01,2013-05-16 21:05:00,
2013-05-16 17:10:00,77.7,57.6,29.88,SW,223,0.0,3.1,50,0.00,,---,0.00,VWS V14.01,2013-05-16 21:10:00,
2013-05-16 17:15:00,77.5,57.5,29.88,SSW,195,0.0,0.0,50,0.00,,---,0.00,VWS V14.01,2013-05-16 21:15:00,
2013-05-16 17:19:00,77.4,57.3,29.88,ENE,69,0.0,0.0,50,0.00,,---,0.00,VWS V14.01,2013-05-16 21:19:00,
2013-05-16 17:24:00,77.4,57.8,29.88,NNW,329,0.0,0.0,51,0.00,,---,0.00,VWS V14.01,2013-05-16 21:24:00,
2013-05-16 17:29:00,77.4,57.3,29.88,NNW,344,0.0,2.7,50,0.00,,---,0.00,VWS V14.01,2013-05-16 21:29:00,
2013-05-16 17:34:00,77.4,57.8,29.88,NNW,339,0.0,0.0,51,0.00,,---,0.00,VWS V14.01,2013-05-16 21:34:00,
2013-05-16 17:39:00,77.4,57.8,29.88,NNW,339,0.0,0.0,51,0.00,,---,0.00,VWS V14.01,2013-05-16 21:39:00,
2013-05-16 17:44:00,77.4,58.4,29.88,NW,313,0.0,0.0,52,0.00,,---,0.00,VWS V14.01,2013-05-16 21:44:00,
2013-05-16 17:49:00,77.4,57.8,29.88,NNW,339,0.0,0.0,51,0.00,,---,0.00,VWS V14.01,2013-05-16 21:49:00,
2013-05-16 17:54:00,77.4,58.9,29.88,NNW,339,0.0,0.0,53,0.00,,---,0.00,VWS V14.01,2013-05-16 21:54:00,
2013-05-16 17:59:00,77.2,59.3,29.88,NNW,339,0.0,0.0,54,0.00,,---,0.00,VWS V14.01,2013-05-16 21:59:00,
2013-05-16 18:04:00,77.0,58.6,29.88,NNW,339,0.0,0.0,53,0.00,,---,0.00,VWS V14.01,2013-05-16 22:04:00,
2013-05-16 18:09:00,76.8,58.4,29.88,NNW,339,0.0,0.0,53,0.00,,---,0.00,VWS V14.01,2013-05-16 22:09:00,
2013-05-16 18:14:00,76.8,58.4,29.88,NNW,339,0.0,0.0,53,0.00,,---,0.00,VWS V14.01,2013-05-16 22:14:00,
2013-05-16 18:19:00,76.6,58.2,29.88,NNW,339,0.0,0.0,53,0.00,,---,0.00,VWS V14.01,2013-05-16 22:19:00,
2013-05-16 18:24:00,76.5,58.1,29.88,NNW,339,0.0,0.0,53,0.00,,---,0.00,VWS V14.01,2013-05-16 22:24:00,
2013-05-16 18:29:00,76.5,58.6,29.88,NNW,339,0.0,0.0,54,0.00,,---,0.00,VWS V14.01,2013-05-16 22:29:00,
2013-05-16 18:34:00,76.3,58.4,29.88,NNW,339,0.0,0.0,54,0.00,,---,0.00,VWS V14.01,2013-05-16 22:34:00,
2013-05-16 18:39:00,76.1,59.8,29.88,NNW,339,0.0,0.0,57,0.00,,---,0.00,VWS V14.01,2013-05-16 22:39:00,
2013-05-16 18:44:00,75.7,59.0,29.88,NNW,339,0.0,0.0,56,0.00,,---,0.00,VWS V14.01,2013-05-16 22:44:00,
2013-05-16 18:49:00,75.6,59.3,29.88,NNW,339,0.0,0.0,57,0.00,,---,0.00,VWS V14.01,2013-05-16 22:49:00,
2013-05-16 18:54:00,75.2,58.9,29.88,NNW,339,0.0,0.0,57,0.00,,---,0.00,VWS V14.01,2013-05-16 22:54:00,
2013-05-16 18:59:00,75.0,59.3,29.88,NNW,339,0.0,0.0,58,0.00,,---,0.00,VWS V14.01,2013-05-16 22:59:00,
2013-05-16 19:04:00,74.8,60.0,29.88,NNW,339,0.0,0.0,60,0.00,,---,0.00,VWS V14.01,2013-05-16 23:04:00,
2013-05-16 19:09:00,74.5,60.2,29.88,NNW,339,0.0,0.0,61,0.00,,---,0.00,VWS V14.01,2013-05-16 23:09:00,
2013-05-16 19:14:00,74.3,60.5,29.88,NNW,339,0.0,0.0,62,0.00,,---,0.00,VWS V14.01,2013-05-16 23:14:00,
2013-05-16 19:19:00,73.9,61.4,29.88,NNW,339,0.0,0.0,65,0.00,,---,0.00,VWS V14.01,2013-05-16 23:19:00,
2013-05-16 19:24:00,73.8,61.3,29.88,NNW,339,0.0,0.0,65,0.00,,---,0.00,VWS V14.01,2013-05-16 23:24:00,
2013-05-16 19:29:00,73.6,61.1,29.88,NNW,339,0.0,0.0,65,0.00,,---,0.00,VWS V14.01,2013-05-16 23:29:00,
2013-05-16 19:34:00,73.4,61.8,29.88,NNW,339,0.0,0.0,67,0.00,,---,0.00,VWS V14.01,2013-05-16 23:34:00,
2013-05-16 19:39:00,73.2,62.0,29.88,NNW,339,0.0,0.0,68,0.00,,---,0.00,VWS V14.01,2013-05-16 23:39:00,
2013-05-16 19:44:00,73.0,61.5,29.88,NNW,339,0.0,0.0,67,0.00,,---,0.00,VWS V14.01,2013-05-16 23:44:00,
2013-05-16 19:49:00,72.9,61.3,29.88,NNW,339,0.0,0.0,67,0.00,,---,0.00,VWS V14.01,2013-05-16 23:49:00,
2013-05-16 19:54:00,72.9,61.3,29.88,NNW,339,0.0,0.0,67,0.00,,---,0.00,VWS V14.01,2013-05-16 23:54:00,
2013-05-16 19:59:00,72.7,61.5,29.88,NNW,339,0.0,0.0,68,0.00,,---,0.00,VWS V14.01,2013-05-16 23:59:00,
2013-05-16 20:04:00,72.5,61.8,29.88,NNW,339,0.0,0.0,69,0.00,,---,0.00,VWS V14.01,2013-05-17 00:04:00,
2013-05-16 20:09:00,72.3,61.6,29.88,NNW,339,0.0,0.0,69,0.00,,---,0.00,VWS V14.01,2013-05-17 00:09:00,
2013-05-16 20:14:00,72.1,62.2,29.88,NNW,339,0.0,0.0,71,0.00,,---,0.00,VWS V14.01,2013-05-17 00:14:00,
2013-05-16 20:19:00,71.8,61.9,29.91,NNW,339,0.0,0.0,71,0.00,,---,0.00,VWS V14.01,2013-05-17 00:19:00,
2013-05-16 20:24:00,71.6,61.7,29.91,NNW,339,0.0,0.0,71,0.00,,---,0.00,VWS V14.01,2013-05-17 00:24:00,
2013-05-16 20:29:00,71.4,61.9,29.91,NNW,339,0.0,0.0,72,0.00,,---,0.00,VWS V14.01,2013-05-17 00:29:00,
2013-05-16 20:34:00,71.1,61.2,29.91,NNW,339,0.0,0.0,71,0.00,,---,0.00,VWS V14.01,2013-05-17 00:34:00,
2013-05-16 20:39:00,70.9,61.0,29.91,NNW,339,0.0,0.0,71,0.00,,---,0.00,VWS V14.01,2013-05-17 00:39:00,
2013-05-16 20:44:00,70.7,61.2,29.91,NNW,339,0.0,0.0,72,0.00,,---,0.00,VWS V14.01,2013-05-17 00:44:00,
2013-05-16 20:49:00,70.5,62.6,29.91,NNW,339,0.0,0.0,76,0.00,,---,0.00,VWS V14.01,2013-05-17 00:49:00,
2013-05-16 20:54:00,70.3,62.4,29.91,NNW,339,0.0,0.0,76,0.00,,---,0.00,VWS V14.01,2013-05-17 00:54:00,
2013-05-16 20:59:00,70.2,62.2,29.91,NNW,339,0.0,0.0,76,0.00,,---,0.00,VWS V14.01,2013-05-17 00:59:00,
2013-05-16 21:04:00,70.0,62.8,29.91,NNW,339,0.0,0.0,78,0.00,,---,0.00,VWS V14.01,2013-05-17 01:04:00,
2013-05-16 21:09:00,69.8,63.0,29.91,NNW,339,0.0,0.0,79,0.00,,---,0.00,VWS V14.01,2013-05-17 01:09:00,
2013-05-16 21:14:00,69.6,62.8,29.91,NNW,339,0.0,0.0,79,0.00,,---,0.00,VWS V14.01,2013-05-17 01:14:00,
2013-05-16 21:19:00,69.4,62.7,29.91,NNW,339,0.0,0.0,79,0.00,,---,0.00,VWS V14.01,2013-05-17 01:19:00,
2013-05-16 21:24:00,69.3,62.8,29.91,NNW,339,0.0,0.0,80,0.00,,---,0.00,VWS V14.01,2013-05-17 01:24:00,
2013-05-16 21:29:00,69.3,62.8,29.91,NNW,339,0.0,0.0,80,0.00,,---,0.00,VWS V14.01,2013-05-17 01:29:00,
2013-05-16 21:34:00,69.1,63.0,29.91,NNW,339,0.0,0.0,81,0.00,,---,0.00,VWS V14.01,2013-05-17 01:34:00,
2013-05-16 21:39:00,69.1,63.0,29.91,NNW,339,0.0,0.0,81,0.00,,---,0.00,VWS V14.01,2013-05-17 01:39:00,
2013-05-16 21:44:00,68.9,62.8,29.91,NNW,339,0.0,0.0,81,0.00,,---,0.00,VWS V14.01,2013-05-17 01:44:00,
2013-05-16 21:49:00,68.7,62.7,29.91,NNW,339,0.0,0.0,81,0.00,,---,0.00,VWS V14.01,2013-05-17 01:49:00,
2013-05-16 21:54:00,68.7,62.7,29.91,NNW,339,0.0,0.0,81,0.00,,---,0.00,VWS V14.01,2013-05-17 01:54:00,
2013-05-16 21:59:00,68.5,62.5,29.91,NNW,339,0.0,0.0,81,0.00,,---,0.00,VWS V14.01,2013-05-17 01:59:00,
2013-05-16 22:04:00,68.5,62.1,29.94,NNW,339,0.0,0.0,80,0.00,,---,0.00,VWS V14.01,2013-05-17 02:04:00,
2013-05-16 22:09:00,68.4,62.3,29.94,NNW,339,0.0,0.0,81,0.00,,---,0.00,VWS V14.01,2013-05-17 02:09:00,
2013-05-16 22:14:00,68.2,62.1,29.94,NNW,339,0.0,0.0,81,0.00,,---,0.00,VWS V14.01,2013-05-17 02:14:00,
2013-05-16 22:19:00,68.0,62.0,29.94,NNW,339,0.0,0.0,81,0.00,,---,0.00,VWS V14.01,2013-05-17 02:19:00,
2013-05-16 22:24:00,67.8,61.8,29.94,NNW,339,0.0,0.0,81,0.00,,---,0.00,VWS V14.01,2013-05-17 02:24:00,
2013-05-16 22:29:00,67.6,62.0,29.94,NNW,339,0.0,0.0,82,0.00,,---,0.00,VWS V14.01,2013-05-17 02:29:00,
2013-05-16 22:34:00,67.3,61.6,29.94,NNW,339,0.0,0.0,82,0.00,,---,0.00,VWS V14.01,2013-05-17 02:34:00,
2013-05-16 22:39:00,67.3,61.3,29.94,NNW,339,0.0,0.0,81,0.00,,---,0.00,VWS V14.01,2013-05-17 02:39:00,
2013-05-16 22:44:00,67.3,61.6,29.94,NNW,339,0.0,0.0,82,0.00,,---,0.00,VWS V14.01,2013-05-17 02:44:00,
2013-05-16 22:49:00,67.1,61.4,29.94,NNW,339,0.0,0.0,82,0.00,,---,0.00,VWS V14.01,2013-05-17 02:49:00,
2013-05-16 22:54:00,66.9,61.2,29.94,NNW,339,0.0,0.0,82,0.00,,---,0.00,VWS V14.01,2013-05-17 02:54:00,
2013-05-16 22:59:00,66.7,61.1,29.94,NNW,339,0.0,0.0,82,0.00,,---,0.00,VWS V14.01,2013-05-17 02:59:00,
2013-05-16 23:04:00,66.6,61.2,29.94,NNW,339,0.0,0.0,83,0.00,,---,0.00,VWS V14.01,2013-05-17 03:04:00,
2013-05-16 23:09:00,66.4,61.4,29.94,NNW,339,0.0,0.0,84,0.00,,---,0.00,VWS V14.01,2013-05-17 03:09:00,
2013-05-16 23:14:00,66.2,61.2,29.94,NNW,339,0.0,0.0,84,0.00,,---,0.00,VWS V14.01,2013-05-17 03:14:00,
2013-05-16 23:19:00,66.0,61.4,29.94,NNW,339,0.0,0.0,85,0.00,,---,0.00,VWS V14.01,2013-05-17 03:19:00,
2013-05-16 23:24:00,66.0,61.4,29.94,NNW,339,0.0,0.0,85,0.00,,---,0.00,VWS V14.01,2013-05-17 03:24:00,
2013-05-16 23:29:00,65.8,61.5,29.94,NNW,339,0.0,0.0,86,0.00,,---,0.00,VWS V14.01,2013-05-17 03:29:00,
2013-05-16 23:34:00,65.8,61.5,29.94,NNW,339,0.0,0.0,86,0.00,,---,0.00,VWS V14.01,2013-05-17 03:34:00,
2013-05-16 23:39:00,65.7,61.4,29.94,NNW,339,0.0,0.0,86,0.00,,---,0.00,VWS V14.01,2013-05-17 03:39:00,
2013-05-16 23:44:00,65.7,61.4,29.94,NNW,339,0.0,0.0,86,0.00,,---,0.00,VWS V14.01,2013-05-17 03:44:00,
2013-05-16 23:49:00,65.5,61.2,29.94,NNW,339,0.0,0.0,86,0.00,,---,0.00,VWS V14.01,2013-05-17 03:49:00,
2013-05-16 23:54:00,65.5,61.5,29.94,NNW,339,0.0,0.0,87,0.00,,---,0.00,VWS V14.01,2013-05-17 03:54:00,
2013-05-16 23:59:00,65.3,61.3,29.94,NNW,339,0.0,0.0,87,0.00,,---,0.00,VWS V14.01,2013-05-17 03:59:00,